Multibeam Report for NBP1101


Ship Name: Nathaniel B. Palmer
Chief Scientist: Kohut, Josh
Rutgers University
Source Organization: Marine Geoscience Data System (MGDS)
Start Date: 2011-01-19
End Date: 2011-02-15


View ISO Metadata

Visit the full NCEI Bathymetry Viewer


Multibeam Bathymetry

Cruise Details

Project: Ross Sea Expedition
Instrument: Kongsberg EM120

Data Quality

Number of Files: 332
Number of Records: 389915
BATHYMETRY DATA Quantity Percentage
Number of Beams 74473383 100%
Number of Good Beams 68182188 91.55%
Number of Zero Beams 6291195 8.45%
Number of Flagged Beams 0 0%
AMPLITUDE DATA Quantity Percentage
Number of Beams 74473383 100%
Number of Good Beams 68182188 91.55%
Number of Zero Beams 6291195 8.45%
Number of Flagged Beams 0 0%
SIDESCAN DATA Quantity Percentage
Number of Pixels 399270912 100%
Number of Good Pixels 291772360 73.08%
Number of Zero Pixels 0 0%
Number of Flagged Pixels 107498552 26.92%

Navigation Totals

Total Time: 275.2332 hours
Total Track Length: 4824.8138 km
Average Speed: 17.53 km/hr (9.4654 knots)

Cruise Bounds

Northern Extent: -71.432556
Southern Extent: -77.834595
Western Extent: 165.64078
Eastern Extent: -171.49629

Limits

Minimum Sonar Depth 5.58 Maximum Sonar Depth 9.02
Minimum Altitude 0 Maximum Altitude 2344.96
Minimum Depth 164.12 Maximum Depth 2609.28
Minimum Amplitude 0 Maximum Amplitude 20.5
Minimum Sidescan 0 Maximum Sidescan 63

File Information

Full Resolution Bathymetry as collected (raw): 329

Files File Size Description
0000_20110119_060321_raw.all.mb56.gz 383.9KB Simrad multibeam vendor format
0001_20110119_094816_raw.all.mb56.gz 13.59MB Simrad multibeam vendor format
0002_20110119_104816_raw.all.mb56.gz 13.74MB Simrad multibeam vendor format
0003_20110119_114817_raw.all.mb56.gz 15.33MB Simrad multibeam vendor format
0004_20110119_124817_raw.all.mb56.gz 13.46MB Simrad multibeam vendor format
0005_20110119_134818_raw.all.mb56.gz 11.37MB Simrad multibeam vendor format
0006_20110119_144818_raw.all.mb56.gz 15.57MB Simrad multibeam vendor format
0007_20110119_154818_raw.all.mb56.gz 12.97MB Simrad multibeam vendor format
0008_20110119_164818_raw.all.mb56.gz 12.99MB Simrad multibeam vendor format
0009_20110119_174818_raw.all.mb56.gz 17.49MB Simrad multibeam vendor format
0010_20110119_184818_raw.all.mb56.gz 17.35MB Simrad multibeam vendor format
0011_20110119_194818_raw.all.mb56.gz 17.37MB Simrad multibeam vendor format
0012_20110119_204818_raw.all.mb56.gz 17.49MB Simrad multibeam vendor format
0013_20110119_214818_raw.all.mb56.gz 2.24MB Simrad multibeam vendor format
0014_20110120_050326_raw.all.mb56.gz 18.10MB Simrad multibeam vendor format
0015_20110120_060326_raw.all.mb56.gz 17.29MB Simrad multibeam vendor format
0016_20110120_070141_raw.all.mb56.gz 17.82MB Simrad multibeam vendor format
0017_20110120_080141_raw.all.mb56.gz 18.01MB Simrad multibeam vendor format
0018_20110120_090141_raw.all.mb56.gz 11.18MB Simrad multibeam vendor format
0019_20110120_125823_raw.all.mb56.gz 17.80MB Simrad multibeam vendor format
0020_20110120_135823_raw.all.mb56.gz 17.81MB Simrad multibeam vendor format
0021_20110120_145823_raw.all.mb56.gz 18.13MB Simrad multibeam vendor format
0022_20110120_155823_raw.all.mb56.gz 19.77MB Simrad multibeam vendor format
0023_20110120_165823_raw.all.mb56.gz 21.44MB Simrad multibeam vendor format
0024_20110120_175823_raw.all.mb56.gz 19.99MB Simrad multibeam vendor format
0025_20110120_185823_raw.all.mb56.gz 19.46MB Simrad multibeam vendor format
0026_20110120_195823_raw.all.mb56.gz 18.99MB Simrad multibeam vendor format
0027_20110120_205823_raw.all.mb56.gz 4.15MB Simrad multibeam vendor format
0028_20110121_094027_raw.all.mb56.gz 11.79MB Simrad multibeam vendor format
0029_20110121_124305_raw.all.mb56.gz 24.71MB Simrad multibeam vendor format
0030_20110121_134305_raw.all.mb56.gz 24.05MB Simrad multibeam vendor format
0031_20110121_144305_raw.all.mb56.gz 23.45MB Simrad multibeam vendor format
0032_20110121_154305_raw.all.mb56.gz 21.26MB Simrad multibeam vendor format
0034_20110121_174304_raw.all.mb56.gz 20.77MB Simrad multibeam vendor format
0035_20110121_184304_raw.all.mb56.gz 4.83MB Simrad multibeam vendor format
0036_20110121_194304_raw.all.mb56.gz 20.62MB Simrad multibeam vendor format
0037_20110121_204304_raw.all.mb56.gz 6.79MB Simrad multibeam vendor format
0038_20110122_002427_raw.all.mb56.gz 20.16MB Simrad multibeam vendor format
0039_20110122_012427_raw.all.mb56.gz 19.19MB Simrad multibeam vendor format
0040_20110122_022427_raw.all.mb56.gz 18.72MB Simrad multibeam vendor format
0041_20110122_032427_raw.all.mb56.gz 18.45MB Simrad multibeam vendor format
0042_20110122_042427_raw.all.mb56.gz 18.66MB Simrad multibeam vendor format
0043_20110122_052427_raw.all.mb56.gz 19.68MB Simrad multibeam vendor format
0044_20110122_062427_raw.all.mb56.gz 6.85MB Simrad multibeam vendor format
0045_20110122_074829_raw.all.mb56.gz 19.60MB Simrad multibeam vendor format
0046_20110122_084829_raw.all.mb56.gz 18.54MB Simrad multibeam vendor format
0047_20110122_094829_raw.all.mb56.gz 18.84MB Simrad multibeam vendor format
0048_20110122_104829_raw.all.mb56.gz 6.57MB Simrad multibeam vendor format
0049_20110122_113017_raw.all.mb56.gz 19.14MB Simrad multibeam vendor format
0050_20110122_123017_raw.all.mb56.gz 19.23MB Simrad multibeam vendor format
0051_20110122_133017_raw.all.mb56.gz 19.35MB Simrad multibeam vendor format
0052_20110122_143017_raw.all.mb56.gz 7.07MB Simrad multibeam vendor format
0053_20110122_152848_raw.all.mb56.gz 21.71MB Simrad multibeam vendor format
0054_20110122_162848_raw.all.mb56.gz 22.76MB Simrad multibeam vendor format
0055_20110122_172848_raw.all.mb56.gz 23.79MB Simrad multibeam vendor format
0056_20110122_182848_raw.all.mb56.gz 1.27MB Simrad multibeam vendor format
0057_20110123_052437_raw.all.mb56.gz 16.92MB Simrad multibeam vendor format
0058_20110123_075257_raw.all.mb56.gz 24.84MB Simrad multibeam vendor format
0059_20110123_085257_raw.all.mb56.gz 23.90MB Simrad multibeam vendor format
0060_20110123_095257_raw.all.mb56.gz 9.15MB Simrad multibeam vendor format
0061_20110123_112040_raw.all.mb56.gz 19.55MB Simrad multibeam vendor format
0062_20110123_122040_raw.all.mb56.gz 17.89MB Simrad multibeam vendor format
0063_20110123_142749_raw.all.mb56.gz 18.28MB Simrad multibeam vendor format
0064_20110123_152749_raw.all.mb56.gz 19.14MB Simrad multibeam vendor format
0065_20110123_162749_raw.all.mb56.gz 20.13MB Simrad multibeam vendor format
0066_20110123_172749_raw.all.mb56.gz 21.85MB Simrad multibeam vendor format
0067_20110123_182749_raw.all.mb56.gz 4.75MB Simrad multibeam vendor format
0068_20110123_203335_raw.all.mb56.gz 14.55MB Simrad multibeam vendor format
0069_20110123_220003_raw.all.mb56.gz 19.90MB Simrad multibeam vendor format
0070_20110123_230003_raw.all.mb56.gz 19.41MB Simrad multibeam vendor format
0071_20110124_000003_raw.all.mb56.gz 19.05MB Simrad multibeam vendor format
0072_20110124_010003_raw.all.mb56.gz 9.60MB Simrad multibeam vendor format
0073_20110124_022658_raw.all.mb56.gz 19.13MB Simrad multibeam vendor format
0074_20110124_032658_raw.all.mb56.gz 10.33MB Simrad multibeam vendor format
0075_20110124_035851_raw.all.mb56.gz 19.73MB Simrad multibeam vendor format
0076_20110124_045851_raw.all.mb56.gz 11.75MB Simrad multibeam vendor format
0077_20110124_055851_raw.all.mb56.gz 10.84MB Simrad multibeam vendor format
0078_20110124_065851_raw.all.mb56.gz 9.09MB Simrad multibeam vendor format
0079_20110124_092757_raw.all.mb56.gz 3.01MB Simrad multibeam vendor format
0080_20110125_125102_raw.all.mb56.gz 10.57MB Simrad multibeam vendor format
0081_20110125_135102_raw.all.mb56.gz 10.95MB Simrad multibeam vendor format
0082_20110125_145102_raw.all.mb56.gz 10.83MB Simrad multibeam vendor format
0083_20110125_155102_raw.all.mb56.gz 10.86MB Simrad multibeam vendor format
0084_20110125_165102_raw.all.mb56.gz 10.88MB Simrad multibeam vendor format
0085_20110125_175102_raw.all.mb56.gz 11.06MB Simrad multibeam vendor format
0086_20110125_185102_raw.all.mb56.gz 11.32MB Simrad multibeam vendor format
0087_20110125_195102_raw.all.mb56.gz 12.39MB Simrad multibeam vendor format
0088_20110125_205102_raw.all.mb56.gz 12.18MB Simrad multibeam vendor format
0089_20110125_215102_raw.all.mb56.gz 4.65MB Simrad multibeam vendor format
0090_20110125_221734_raw.all.mb56.gz 10.70MB Simrad multibeam vendor format
0091_20110125_231734_raw.all.mb56.gz 10.49MB Simrad multibeam vendor format
0092_20110126_001734_raw.all.mb56.gz 8.78MB Simrad multibeam vendor format
0093_20110126_154347_raw.all.mb56.gz 10.96MB Simrad multibeam vendor format
0094_20110126_164347_raw.all.mb56.gz 13.16MB Simrad multibeam vendor format
0095_20110126_174347_raw.all.mb56.gz 16.05MB Simrad multibeam vendor format
0096_20110126_184347_raw.all.mb56.gz 19.31MB Simrad multibeam vendor format
0097_20110126_194347_raw.all.mb56.gz 19.23MB Simrad multibeam vendor format
0098_20110126_204347_raw.all.mb56.gz 19.61MB Simrad multibeam vendor format
0099_20110126_214347_raw.all.mb56.gz 1.76MB Simrad multibeam vendor format
0100_20110126_223930_raw.all.mb56.gz 20.76MB Simrad multibeam vendor format
0101_20110126_233930_raw.all.mb56.gz 21.36MB Simrad multibeam vendor format
0102_20110127_003930_raw.all.mb56.gz 8.93MB Simrad multibeam vendor format
0103_20110127_024921_raw.all.mb56.gz 4.82MB Simrad multibeam vendor format
0104_20110127_084222_raw.all.mb56.gz 8.24MB Simrad multibeam vendor format
0105_20110127_102142_raw.all.mb56.gz 21.42MB Simrad multibeam vendor format
0106_20110127_112141_raw.all.mb56.gz 20.87MB Simrad multibeam vendor format
0107_20110127_122141_raw.all.mb56.gz 2.38MB Simrad multibeam vendor format
0108_20110127_141552_raw.all.mb56.gz 21.15MB Simrad multibeam vendor format
0109_20110127_151552_raw.all.mb56.gz 21.03MB Simrad multibeam vendor format
0110_20110127_161552_raw.all.mb56.gz 20.86MB Simrad multibeam vendor format
0111_20110127_171552_raw.all.mb56.gz 20.63MB Simrad multibeam vendor format
0112_20110127_181552_raw.all.mb56.gz 20.38MB Simrad multibeam vendor format
0113_20110127_191552_raw.all.mb56.gz 20.14MB Simrad multibeam vendor format
0114_20110127_201552_raw.all.mb56.gz 17.25MB Simrad multibeam vendor format
0115_20110127_210903_raw.all.mb56.gz 333.7KB Simrad multibeam vendor format
0116_20110127_211006_raw.all.mb56.gz 18.53MB Simrad multibeam vendor format
0117_20110127_221006_raw.all.mb56.gz 18.35MB Simrad multibeam vendor format
0118_20110127_231006_raw.all.mb56.gz 18.15MB Simrad multibeam vendor format
0119_20110128_001006_raw.all.mb56.gz 18.01MB Simrad multibeam vendor format
0120_20110128_011006_raw.all.mb56.gz 18.16MB Simrad multibeam vendor format
0121_20110128_021006_raw.all.mb56.gz 18.01MB Simrad multibeam vendor format
0122_20110128_031006_raw.all.mb56.gz 17.28MB Simrad multibeam vendor format
0123_20110128_041006_raw.all.mb56.gz 16.60MB Simrad multibeam vendor format
0124_20110128_051006_raw.all.mb56.gz 16.96MB Simrad multibeam vendor format
0125_20110128_061006_raw.all.mb56.gz 15.15MB Simrad multibeam vendor format
0126_20110128_071006_raw.all.mb56.gz 8.91MB Simrad multibeam vendor format
0127_20110128_074636_raw.all.mb56.gz 4.69MB Simrad multibeam vendor format
0128_20110129_195403_raw.all.mb56.gz 16.23MB Simrad multibeam vendor format
0129_20110129_205403_raw.all.mb56.gz 15.07MB Simrad multibeam vendor format
0130_20110129_215403_raw.all.mb56.gz 15.97MB Simrad multibeam vendor format
0131_20110129_225403_raw.all.mb56.gz 15.49MB Simrad multibeam vendor format
0132_20110129_235403_raw.all.mb56.gz 14.62MB Simrad multibeam vendor format
0133_20110130_005403_raw.all.mb56.gz 16.10MB Simrad multibeam vendor format
0134_20110130_015403_raw.all.mb56.gz 17.12MB Simrad multibeam vendor format
0135_20110130_025403_raw.all.mb56.gz 16.83MB Simrad multibeam vendor format
0136_20110130_035403_raw.all.mb56.gz 16.44MB Simrad multibeam vendor format
0137_20110130_045403_raw.all.mb56.gz 16.59MB Simrad multibeam vendor format
0138_20110130_055403_raw.all.mb56.gz 17.13MB Simrad multibeam vendor format
0139_20110130_065403_raw.all.mb56.gz 17.66MB Simrad multibeam vendor format
0140_20110130_075403_raw.all.mb56.gz 18.07MB Simrad multibeam vendor format
0141_20110130_085403_raw.all.mb56.gz 18.08MB Simrad multibeam vendor format
0142_20110130_095403_raw.all.mb56.gz 18.41MB Simrad multibeam vendor format
0143_20110130_105403_raw.all.mb56.gz 18.52MB Simrad multibeam vendor format
0144_20110130_115403_raw.all.mb56.gz 18.70MB Simrad multibeam vendor format
0145_20110130_125403_raw.all.mb56.gz 18.88MB Simrad multibeam vendor format
0146_20110130_135403_raw.all.mb56.gz 18.77MB Simrad multibeam vendor format
0147_20110130_145403_raw.all.mb56.gz 18.74MB Simrad multibeam vendor format
0148_20110130_155403_raw.all.mb56.gz 18.83MB Simrad multibeam vendor format
0149_20110130_165403_raw.all.mb56.gz 19.12MB Simrad multibeam vendor format
0150_20110130_175402_raw.all.mb56.gz 19.91MB Simrad multibeam vendor format
0151_20110130_185402_raw.all.mb56.gz 20.50MB Simrad multibeam vendor format
0152_20110130_195402_raw.all.mb56.gz 20.81MB Simrad multibeam vendor format
0153_20110130_205402_raw.all.mb56.gz 5.23MB Simrad multibeam vendor format
0154_20110131_002042_raw.all.mb56.gz 1.51MB Simrad multibeam vendor format
0155_20110131_010135_raw.all.mb56.gz 21.05MB Simrad multibeam vendor format
0156_20110131_020135_raw.all.mb56.gz 21.10MB Simrad multibeam vendor format
0157_20110131_030135_raw.all.mb56.gz 21.28MB Simrad multibeam vendor format
0158_20110131_040135_raw.all.mb56.gz 20.34MB Simrad multibeam vendor format
0159_20110131_050135_raw.all.mb56.gz 3.44MB Simrad multibeam vendor format
0160_20110131_065057_raw.all.mb56.gz 10.91MB Simrad multibeam vendor format
0161_20110131_072212_raw.all.mb56.gz 21.23MB Simrad multibeam vendor format
0162_20110131_082211_raw.all.mb56.gz 22.14MB Simrad multibeam vendor format
0163_20110131_092211_raw.all.mb56.gz 23.36MB Simrad multibeam vendor format
0164_20110131_102211_raw.all.mb56.gz 23.39MB Simrad multibeam vendor format
0165_20110131_112211_raw.all.mb56.gz 16.87MB Simrad multibeam vendor format
0166_20110131_135316_raw.all.mb56.gz 18.85MB Simrad multibeam vendor format
0167_20110131_145316_raw.all.mb56.gz 18.43MB Simrad multibeam vendor format
0168_20110131_155316_raw.all.mb56.gz 18.25MB Simrad multibeam vendor format
0169_20110131_165316_raw.all.mb56.gz 2.44MB Simrad multibeam vendor format
0170_20110201_005558_raw.all.mb56.gz 21.72MB Simrad multibeam vendor format
0171_20110201_015558_raw.all.mb56.gz 2.66MB Simrad multibeam vendor format
0172_20110201_023153_raw.all.mb56.gz 6.58MB Simrad multibeam vendor format
0173_20110201_065900_raw.all.mb56.gz 21.77MB Simrad multibeam vendor format
0174_20110201_075900_raw.all.mb56.gz 22.42MB Simrad multibeam vendor format
0175_20110201_085900_raw.all.mb56.gz 12.21MB Simrad multibeam vendor format
0176_20110201_101643_raw.all.mb56.gz 25.31MB Simrad multibeam vendor format
0177_20110201_111643_raw.all.mb56.gz 9.28MB Simrad multibeam vendor format
0178_20110201_125056_raw.all.mb56.gz 24.41MB Simrad multibeam vendor format
0179_20110201_135056_raw.all.mb56.gz 23.91MB Simrad multibeam vendor format
0180_20110201_145056_raw.all.mb56.gz 23.62MB Simrad multibeam vendor format
0181_20110201_155056_raw.all.mb56.gz 21.07MB Simrad multibeam vendor format
0182_20110201_165056_raw.all.mb56.gz 0.57MB Simrad multibeam vendor format
0183_20110201_235419_raw.all.mb56.gz 279.2KB Simrad multibeam vendor format
0184_20110202_012519_raw.all.mb56.gz 19.39MB Simrad multibeam vendor format
0185_20110202_022519_raw.all.mb56.gz 19.18MB Simrad multibeam vendor format
0186_20110202_032519_raw.all.mb56.gz 18.73MB Simrad multibeam vendor format
0187_20110202_042519_raw.all.mb56.gz 18.62MB Simrad multibeam vendor format
0188_20110202_052519_raw.all.mb56.gz 19.35MB Simrad multibeam vendor format
0189_20110202_062519_raw.all.mb56.gz 18.91MB Simrad multibeam vendor format
0190_20110202_072519_raw.all.mb56.gz 17.93MB Simrad multibeam vendor format
0191_20110202_082519_raw.all.mb56.gz 3.57MB Simrad multibeam vendor format
0192_20110202_084836_raw.all.mb56.gz 6.88MB Simrad multibeam vendor format
0193_20110202_102924_raw.all.mb56.gz 18.10MB Simrad multibeam vendor format
0194_20110202_112928_raw.all.mb56.gz 18.53MB Simrad multibeam vendor format
0195_20110202_122928_raw.all.mb56.gz 18.99MB Simrad multibeam vendor format
0196_20110202_132928_raw.all.mb56.gz 19.35MB Simrad multibeam vendor format
0197_20110202_142928_raw.all.mb56.gz 15.76MB Simrad multibeam vendor format
0198_20110202_152928_raw.all.mb56.gz 12.77MB Simrad multibeam vendor format
0199_20110202_162928_raw.all.mb56.gz 11.78MB Simrad multibeam vendor format
0200_20110202_172928_raw.all.mb56.gz 9.93MB Simrad multibeam vendor format
0201_20110203_072500_raw.all.mb56.gz 1.60MB Simrad multibeam vendor format
0202_20110203_073357_raw.all.mb56.gz 10.64MB Simrad multibeam vendor format
0203_20110203_083357_raw.all.mb56.gz 11.31MB Simrad multibeam vendor format
0204_20110203_093357_raw.all.mb56.gz 11.09MB Simrad multibeam vendor format
0205_20110203_103357_raw.all.mb56.gz 11.82MB Simrad multibeam vendor format
0206_20110203_113357_raw.all.mb56.gz 12.39MB Simrad multibeam vendor format
0207_20110203_123357_raw.all.mb56.gz 14.85MB Simrad multibeam vendor format
0208_20110203_133357_raw.all.mb56.gz 17.19MB Simrad multibeam vendor format
0209_20110203_143357_raw.all.mb56.gz 16.81MB Simrad multibeam vendor format
0210_20110203_153357_raw.all.mb56.gz 17.64MB Simrad multibeam vendor format
0211_20110203_163357_raw.all.mb56.gz 17.99MB Simrad multibeam vendor format
0212_20110203_173357_raw.all.mb56.gz 17.28MB Simrad multibeam vendor format
0213_20110203_183357_raw.all.mb56.gz 18.67MB Simrad multibeam vendor format
0214_20110203_193357_raw.all.mb56.gz 3.17MB Simrad multibeam vendor format
0215_20110203_203537_raw.all.mb56.gz 8.69MB Simrad multibeam vendor format
0216_20110203_210627_raw.all.mb56.gz 17.87MB Simrad multibeam vendor format
0217_20110203_220626_raw.all.mb56.gz 17.99MB Simrad multibeam vendor format
0218_20110203_230626_raw.all.mb56.gz 19.24MB Simrad multibeam vendor format
0219_20110204_000626_raw.all.mb56.gz 20.15MB Simrad multibeam vendor format
0220_20110204_010626_raw.all.mb56.gz 21.66MB Simrad multibeam vendor format
0221_20110204_020626_raw.all.mb56.gz 23.57MB Simrad multibeam vendor format
0222_20110204_030626_raw.all.mb56.gz 24.39MB Simrad multibeam vendor format
0223_20110204_040626_raw.all.mb56.gz 22.40MB Simrad multibeam vendor format
0224_20110204_050626_raw.all.mb56.gz 20.19MB Simrad multibeam vendor format
0225_20110204_060626_raw.all.mb56.gz 10.80MB Simrad multibeam vendor format
0226_20110204_073932_raw.all.mb56.gz 8.32MB Simrad multibeam vendor format
0227_20110204_090656_raw.all.mb56.gz 18.97MB Simrad multibeam vendor format
0228_20110204_100656_raw.all.mb56.gz 19.28MB Simrad multibeam vendor format
0229_20110204_110656_raw.all.mb56.gz 19.59MB Simrad multibeam vendor format
0230_20110204_120656_raw.all.mb56.gz 20.59MB Simrad multibeam vendor format
0231_20110204_130656_raw.all.mb56.gz 3.66MB Simrad multibeam vendor format
0232_20110204_133128_raw.all.mb56.gz 19.35MB Simrad multibeam vendor format
0233_20110204_143128_raw.all.mb56.gz 18.01MB Simrad multibeam vendor format
0234_20110204_153128_raw.all.mb56.gz 3.41MB Simrad multibeam vendor format
0235_20110204_170628_raw.all.mb56.gz 17.95MB Simrad multibeam vendor format
0236_20110204_180628_raw.all.mb56.gz 19.47MB Simrad multibeam vendor format
0237_20110204_190628_raw.all.mb56.gz 7.77MB Simrad multibeam vendor format
0238_20110205_004811_raw.all.mb56.gz 18.41MB Simrad multibeam vendor format
0239_20110205_070653_raw.all.mb56.gz 20.72MB Simrad multibeam vendor format
0240_20110205_080653_raw.all.mb56.gz 21.78MB Simrad multibeam vendor format
0241_20110205_090653_raw.all.mb56.gz 6.25MB Simrad multibeam vendor format
0242_20110205_104414_raw.all.mb56.gz 21.63MB Simrad multibeam vendor format
0243_20110205_114414_raw.all.mb56.gz 16.99MB Simrad multibeam vendor format
0244_20110205_124414_raw.all.mb56.gz 119.9KB Simrad multibeam vendor format
0245_20110205_133124_raw.all.mb56.gz 47.5KB Simrad multibeam vendor format
0246_20110205_133530_raw.all.mb56.gz 20.35MB Simrad multibeam vendor format
0247_20110205_143530_raw.all.mb56.gz 23.10MB Simrad multibeam vendor format
0248_20110205_153530_raw.all.mb56.gz 4.54MB Simrad multibeam vendor format
0249_20110205_160544_raw.all.mb56.gz 22.86MB Simrad multibeam vendor format
0250_20110205_170544_raw.all.mb56.gz 21.39MB Simrad multibeam vendor format
0251_20110205_180544_raw.all.mb56.gz 5.56MB Simrad multibeam vendor format
0252_20110205_195430_raw.all.mb56.gz 18.34MB Simrad multibeam vendor format
0253_20110205_205430_raw.all.mb56.gz 7.94MB Simrad multibeam vendor format
0254_20110205_220836_raw.all.mb56.gz 18.28MB Simrad multibeam vendor format
0255_20110205_230836_raw.all.mb56.gz 19.13MB Simrad multibeam vendor format
0256_20110206_000836_raw.all.mb56.gz 10.02MB Simrad multibeam vendor format
0257_20110206_071901_raw.all.mb56.gz 21.48MB Simrad multibeam vendor format
0258_20110206_081901_raw.all.mb56.gz 14.07MB Simrad multibeam vendor format
0259_20110206_114431_raw.all.mb56.gz 22.15MB Simrad multibeam vendor format
0260_20110206_124430_raw.all.mb56.gz 10.96MB Simrad multibeam vendor format
0261_20110206_140819_raw.all.mb56.gz 18.93MB Simrad multibeam vendor format
0262_20110206_150819_raw.all.mb56.gz 14.94MB Simrad multibeam vendor format
0263_20110206_163855_raw.all.mb56.gz 18.26MB Simrad multibeam vendor format
0264_20110206_173855_raw.all.mb56.gz 8.67MB Simrad multibeam vendor format
0265_20110206_184808_raw.all.mb56.gz 18.47MB Simrad multibeam vendor format
0266_20110206_194808_raw.all.mb56.gz 18.34MB Simrad multibeam vendor format
0267_20110206_204808_raw.all.mb56.gz 4.35MB Simrad multibeam vendor format
0268_20110206_222549_raw.all.mb56.gz 18.74MB Simrad multibeam vendor format
0269_20110206_232549_raw.all.mb56.gz 19.15MB Simrad multibeam vendor format
0270_20110207_002549_raw.all.mb56.gz 6.42MB Simrad multibeam vendor format
0271_20110207_005057_raw.all.mb56.gz 1.84MB Simrad multibeam vendor format
0272_20110207_014520_raw.all.mb56.gz 19.31MB Simrad multibeam vendor format
0273_20110207_024519_raw.all.mb56.gz 19.22MB Simrad multibeam vendor format
0274_20110207_034519_raw.all.mb56.gz 18.84MB Simrad multibeam vendor format
0275_20110207_125913_raw.all.mb56.gz 23.90MB Simrad multibeam vendor format
0276_20110207_135913_raw.all.mb56.gz 9.28MB Simrad multibeam vendor format
0277_20110207_174412_raw.all.mb56.gz 20.11MB Simrad multibeam vendor format
0278_20110207_184412_raw.all.mb56.gz 14.83MB Simrad multibeam vendor format
0279_20110207_201534_raw.all.mb56.gz 18.20MB Simrad multibeam vendor format
0280_20110207_211534_raw.all.mb56.gz 19.80MB Simrad multibeam vendor format
0281_20110207_221534_raw.all.mb56.gz 3.82MB Simrad multibeam vendor format
0282_20110208_001750_raw.all.mb56.gz 20.84MB Simrad multibeam vendor format
0283_20110208_011750_raw.all.mb56.gz 21.77MB Simrad multibeam vendor format
0284_20110208_021750_raw.all.mb56.gz 5.66MB Simrad multibeam vendor format
0285_20110208_031656_raw.all.mb56.gz 22.77MB Simrad multibeam vendor format
0286_20110208_041656_raw.all.mb56.gz 21.67MB Simrad multibeam vendor format
0287_20110208_051656_raw.all.mb56.gz 20.74MB Simrad multibeam vendor format
0288_20110208_061656_raw.all.mb56.gz 15.84MB Simrad multibeam vendor format
0289_20110208_083303_raw.all.mb56.gz 19.37MB Simrad multibeam vendor format
0290_20110208_093303_raw.all.mb56.gz 19.27MB Simrad multibeam vendor format
0291_20110208_103303_raw.all.mb56.gz 7.08MB Simrad multibeam vendor format
0292_20110208_122216_raw.all.mb56.gz 19.65MB Simrad multibeam vendor format
0293_20110208_132216_raw.all.mb56.gz 23.05MB Simrad multibeam vendor format
0294_20110208_142216_raw.all.mb56.gz 21.37MB Simrad multibeam vendor format
0295_20110208_152216_raw.all.mb56.gz 17.35MB Simrad multibeam vendor format
0296_20110208_162216_raw.all.mb56.gz 19.80MB Simrad multibeam vendor format
0297_20110208_172216_raw.all.mb56.gz 19.77MB Simrad multibeam vendor format
0298_20110208_182216_raw.all.mb56.gz 19.86MB Simrad multibeam vendor format
0299_20110208_192216_raw.all.mb56.gz 19.58MB Simrad multibeam vendor format
0300_20110208_202216_raw.all.mb56.gz 16.65MB Simrad multibeam vendor format
0301_20110209_024241_raw.all.mb56.gz 8.64MB Simrad multibeam vendor format
0302_20110209_034608_raw.all.mb56.gz 21.19MB Simrad multibeam vendor format
0303_20110209_044608_raw.all.mb56.gz 17.45MB Simrad multibeam vendor format
0304_20110209_054608_raw.all.mb56.gz 6.99MB Simrad multibeam vendor format
0305_20110209_065716_raw.all.mb56.gz 19.25MB Simrad multibeam vendor format
0306_20110209_075716_raw.all.mb56.gz 20.02MB Simrad multibeam vendor format
0307_20110209_093715_raw.all.mb56.gz 20.65MB Simrad multibeam vendor format
0308_20110209_103716_raw.all.mb56.gz 14.43MB Simrad multibeam vendor format
0309_20110209_184253_raw.all.mb56.gz 15.56MB Simrad multibeam vendor format
0310_20110209_194253_raw.all.mb56.gz 1.26MB Simrad multibeam vendor format
0311_20110210_155254_raw.all.mb56.gz 19.89MB Simrad multibeam vendor format
0312_20110210_165254_raw.all.mb56.gz 5.81MB Simrad multibeam vendor format
0313_20110212_054722_raw.all.mb56.gz 18.22MB Simrad multibeam vendor format
0314_20110212_064722_raw.all.mb56.gz 18.47MB Simrad multibeam vendor format
0315_20110212_074722_raw.all.mb56.gz 18.80MB Simrad multibeam vendor format
0316_20110212_084722_raw.all.mb56.gz 20.08MB Simrad multibeam vendor format
0317_20110212_094721_raw.all.mb56.gz 21.26MB Simrad multibeam vendor format
0318_20110212_104722_raw.all.mb56.gz 20.70MB Simrad multibeam vendor format
0319_20110212_114721_raw.all.mb56.gz 9.59MB Simrad multibeam vendor format
0320_20110213_022816_raw.all.mb56.gz 473.3KB Simrad multibeam vendor format
0321_20110213_062136_raw.all.mb56.gz 16.97MB Simrad multibeam vendor format
0322_20110213_072136_raw.all.mb56.gz 17.32MB Simrad multibeam vendor format
0323_20110213_082136_raw.all.mb56.gz 17.44MB Simrad multibeam vendor format
0324_20110213_092136_raw.all.mb56.gz 17.27MB Simrad multibeam vendor format
0325_20110213_102136_raw.all.mb56.gz 15.75MB Simrad multibeam vendor format
0326_20110213_112136_raw.all.mb56.gz 16.17MB Simrad multibeam vendor format
0327_20110213_122136_raw.all.mb56.gz 12.93MB Simrad multibeam vendor format
0328_20110213_150149_raw.all.mb56.gz 164.1KB Simrad multibeam vendor format
0329_20110213_204012_raw.all.mb56.gz 2.15MB Simrad multibeam vendor format

Metadata Files: 3

Files File Size Description
NBP1101_Multibeam.xml NGDC created ISO metadata
NBP1101.xml 52.3KB XML metadata file
mb_bag_info.tar.gz 9.5KB Additional cruise information